Location: Celina Elementary School
(33.3262°N, 96.7767°W)
Time: 07:09:39
(UTC+00:00)

Cosmos 2221 - Pass Details

Date: 26 November 2021
Orbit: 592 x 615 km, 82.5° (Epoch: 19 January)

Event Time Altitude Azimuth Distance (km) Brightness Sun altitude
Exits shadow 12:22:31 11° 312° (NW) 1,918 4.5 -9.8°
Maximum altitude 12:25:11 17° 272° (W) 1,542 4.0 -9.3°
Drops below altitude 10° 12:28:02 10° 231° (SW) 1,966 4.8 -8.7°
Sets 12:30:52 0° 212° (SSW) 2,868 5.9 -8.1°
